Vorticity
nan nan nan nan nan nan nan nan nan nan nan nan nan nan nan nan nan nan nan nan nan nan nan nan nan nan nan nan nan nan nan nan nan
nan 5 6 8 7 7 5 4 4 5 6 5 3 2 2 4 6 7 5 10 5 6 7 5 5 5 8 6 5 7 5 6 nan
nan 4 7 7 6 6 6 6 6 6 6 4 2 2 3 4 5 7 8 10 6 4 6 6 4 6 5 9 7 6 6 6 nan
nan 7 7 6 5 6 7 7 6 6 7 5 2 4 6 5 5 6 9 8 6 5 6 7 4 2 7 8 8 6 8 8 nan
nan 11 7 7 6 6 5 5 5 6 5 5 5 5 3 6 6 6 12 7 5 8 7 6 6 8 9 4 6 7 7 8 nan
nan 13 11 10 8 6 5 4 5 4 4 4 4 1 3 6 6 7 12 7 6 6 7 3 6 11 7 5 6 7 7 8 nan
nan 10 9 9 9 6 5 4 1 1 2 2 4 5 8 6 7 10 11 8 7 7 5 1 4 9 6 4 6 7 8 7 nan
nan 7 9 8 7 6 6 3 3 5 5 7 7 7 7 6 9 12 9 8 8 9 7 4 3 6 6 5 5 7 8 8 nan
nan 6 8 7 7 7 6 5 8 8 9 8 7 6 7 8 8 9 9 6 7 4 5 7 6 4 5 7 3 6 8 8 nan
nan 8 8 7 7 7 6 8 7 7 6 7 7 7 7 7 7 9 8 7 6 6 7 5 4 5 4 4 4 5 8 7 nan
nan 8 8 7 7 8 8 7 6 8 7 6 7 8 6 7 8 8 6 9 7 7 7 4 9 11 7 5 6 5 6 8 nan
nan 7 7 8 9 6 8 6 6 8 9 7 6 7 7 8 7 7 8 8 8 9 11 8 10 7 7 8 9 7 5 8 nan
nan 9 8 9 7 7 7 7 7 7 7 7 7 7 7 7 7 7 8 8 9 9 8 11 8 6 6 3 4 9 9 8 nan
nan 6 10 9 6 8 7 8 7 6 7 8 7 8 9 6 7 10 8 8 8 7 7 6 6 8 8 7 6 3 6 8 nan
nan 8 10 5 8 7 10 8 8 8 7 7 6 7 9 9 8 8 7 8 8 6 7 7 8 10 8 9 8 5 3 4 nan
nan 9 7 8 10 9 6 7 7 6 6 3 4 6 10 10 9 8 7 7 7 8 6 6 9 12 11 6 7 10 6 4 nan
nan 16 7 5 7 9 7 6 3 8 6 3 5 5 5 9 9 9 8 7 7 8 8 7 7 8 9 11 11 8 8 6 nan
nan 10 10 6 5 8 8 8 5 5 7 5 3 6 10 7 8 9 9 8 8 9 8 8 7 7 9 10 10 9 7 9 nan
nan 13 12 8 7 8 7 7 5 7 8 2 3 9 13 7 7 8 10 10 9 7 7 9 8 8 7 10 10 10 9 9 nan
nan nan nan nan nan nan nan nan nan nan nan nan nan nan nan nan nan nan nan nan nan nan nan nan nan nan nan nan nan nan nan nan nan
CAPE
867 1134 1181 1020 1035 1044 925 921 821 777 590 512 271 75 2 0 0 0 15 4 29 33 15 22 20 12 25 44 83 126 177 213 297
1033 1123 902 788 918 897 989 939 851 764 589 267 105 13 0 0 0 0 0 4 19 34 15 22 15 26 45 29 59 61 65 111 171
1325 758 592 1044 979 1063 985 745 773 656 570 160 18 0 0 0 0 0 12 37 11 21 35 11 13 28 60 58 63 64 82 113 111
615 535 561 658 1055 1029 991 835 628 585 392 79 20 0 0 0 0 0 25 43 9 3 12 4 13 29 56 69 74 59 97 100 114
401 234 268 437 920 591 710 642 515 376 149 34 19 0 0 0 0 0 19 41 15 12 12 17 7 39 57 68 70 72 66 71 102
230 88 136 286 399 452 637 619 306 76 29 31 3 0 0 0 0 0 43 29 15 7 10 17 58 66 63 63 65 69 64 72 70
177 30 70 209 209 231 361 422 52 10 6 4 0 0 0 0 0 2 60 38 8 10 27 17 41 79 58 54 57 62 62 69 68
147 37 15 73 127 163 183 9 0 2 2 0 0 0 0 0 0 39 82 50 59 55 21 6 35 45 51 45 45 55 61 70 62
214 64 6 58 156 92 12 0 0 1 0 0 0 0 0 0 0 14 41 43 31 27 23 24 23 23 45 44 35 40 56 56 51
180 108 32 27 65 55 1 0 0 2 0 0 0 0 0 0 0 3 21 44 44 6 19 19 23 30 27 34 16 33 54 52 38
210 210 72 24 39 30 3 0 0 3 0 0 0 0 0 0 0 2 13 23 37 39 18 49 51 41 21 22 2 26 52 53 29
187 216 52 0 3 10 0 0 0 1 0 0 0 0 0 0 0 0 5 11 23 52 19 58 33 57 63 27 22 25 28 47 45
164 79 9 0 0 0 0 1 0 0 0 2 2 2 3 0 0 8 7 7 9 22 21 56 50 38 29 32 26 35 52 47 41
177 53 7 0 8 2 0 0 0 1 0 1 9 19 7 16 19 26 6 1 0 0 18 26 38 40 36 27 16 26 26 40 42
152 18 25 3 8 8 0 0 0 0 4 7 16 5 12 3 3 4 1 0 0 0 0 7 32 34 31 35 22 15 27 22 21
8 20 30 8 4 0 0 0 0 5 17 0 0 0 0 0 0 0 0 0 0 0 0 0 17 18 32 35 32 35 28 23 1
6 52 34 13 0 0 0 0 1 13 0 0 0 0 0 0 0 0 0 0 0 0 0 0 0 4 1 6 18 51 32 41 17
5 20 44 3 0 0 0 0 0 1 0 0 0 0 3 0 0 0 0 0 0 0 0 0 0 1 6 14 17 19 12 18 28
7 14 1 6 1 0 0 0 0 0 1 0 0 0 0 1 0 0 0 0 0 0 0 0 0 0 13 13 10 0 19 9 32
9 11 29 4 4 0 0 0 0 0 0 0 0 0 0 0 0 0 0 0 0 0 0 0 0 0 0 2 6 3 20 18 26